Kuchera_Ratio
0.0 0.0 0.0 0.0 0.0 0.0 0.0 0.0 0.0 0.0 0.0 0.0 0.0 0.0 0.0 0.0 0.0 0.0 0.0 0.0 0.0 0.0 0.0 0.0 0.0 0.0 0.0
0.9 0.0 0.0 0.0 0.0 0.0 0.0 0.0 0.0 0.0 0.0 0.0 0.0 0.0 0.0 0.0 0.0 0.0 0.0 0.0 0.0 0.0 0.0 0.0 0.0 0.0 0.0
5.8 1.1 0.0 0.0 0.0 0.0 0.0 0.0 0.0 0.0 0.0 0.0 0.0 0.0 0.0 0.0 0.0 0.0 0.0 0.0 0.0 0.0 0.0 0.0 0.0 0.0 0.0
6.8 5.4 3.5 0.0 0.0 0.9 1.5 0.0 0.0 0.0 0.0 0.0 0.0 0.0 0.0 0.0 0.0 0.0 0.0 0.0 0.0 0.0 0.0 0.0 0.0 0.0 0.0
9.7 8.9 7.9 6.5 5.6 2.8 3.6 2.6 1.5 0.0 0.0 0.0 0.0 0.0 0.0 0.0 0.0 0.0 0.0 0.0 0.0 0.0 0.0 0.0 0.0 0.0 0.0
10.1 11.0 10.2 7.5 6.1 5.9 6.2 7.7 9.8 0.0 2.8 2.0 0.0 0.0 0.0 0.0 0.0 0.0 0.0 0.0 0.0 0.0 0.0 0.0 0.0 0.0 0.0
9.5 10.4 9.5 7.2 7.2 8.6 8.9 8.2 8.7 3.6 3.8 6.6 0.1 0.2 0.0 0.0 0.0 0.0 0.0 0.0 0.0 0.0 0.0 0.0 0.0 0.0 0.0
7.6 7.4 7.1 6.6 6.2 3.9 8.0 9.1 7.2 4.6 3.9 9.5 2.8 4.3 0.0 0.0 0.0 0.0 0.0 0.0 0.0 0.0 0.0 0.0 0.0 0.0 0.0
0.0 0.0 0.0 0.0 0.0 4.2 10.4 12.9 12.4 10.0 5.8 7.6 6.5 5.2 2.9 0.9 0.0 0.0 0.0 0.0 0.0 0.0 0.0 0.0 0.0 0.0 0.0
9.1 6.5 4.9 6.8 0.7 7.0 9.6 13.3 13.0 12.9 7.9 9.5 8.5 9.3 11.1 2.2 0.8 0.0 0.0 0.0 0.0 0.0 0.0 0.0 0.0 0.0 0.0
11.0 11.1 9.6 10.4 9.6 9.3 10.2 11.2 12.8 13.4 7.9 8.4 11.4 10.6 12.3 10.5 5.6 2.5 1.3 0.0 0.0 0.0 0.0 0.0 0.0 0.0 0.0
12.9 12.9 12.9 12.5 12.2 12.0 11.5 11.0 10.8 12.1 9.0 9.8 11.6 12.5 13.2 13.1 12.4 7.5 5.2 2.0 0.9 0.0 0.0 0.0 0.0 0.0 0.0
13.2 12.4 12.5 12.4 11.4 12.4 12.3 11.9 10.9 10.2 7.9 10.6 12.3 12.3 13.0 12.6 12.0 9.5 8.1 5.8 2.6 1.2 0.0 0.0 0.0 0.0 0.0
13.4 12.5 12.3 13.5 12.5 12.7 13.5 13.2 13.5 13.3 11.6 10.4 12.1 12.8 12.3 10.2 9.3 10.1 7.2 9.5 4.3 2.5 3.0 0.0 0.0 0.0 0.0
13.6 13.3 12.4 12.2 12.3 13.2 13.8 14.3 15.2 15.5 14.6 13.5 12.4 11.1 9.2 8.4 10.3 8.8 8.3 6.7 4.7 3.5 3.7 1.8 0.2 0.0 0.0
13.1 13.0 13.4 13.5 13.6 12.9 14.5 15.2 15.9 15.6 15.6 14.9 15.1 14.9 12.5 7.9 4.2 8.6 7.1 6.8 5.2 3.1 3.1 3.7 3.1 1.0 0.0
15.7 16.0 14.5 14.0 13.2 14.5 15.0 15.3 15.5 15.3 14.9 15.1 14.9 14.3 15.3 15.5 9.9 1.5 8.7 7.0 5.9 5.2 3.1 3.1 3.4 2.6 1.0